H1 CPF 2 NER 2022 6 21 9 172 01 glonass137 H2 1705501 9137 42939 2022 6 21 0 0 0 2022 6 24 23 45 0 900 1 1 0 0 0 1 H9 10 0 59751 0.00000 0 8085233.490 -14688455.113 -19216219.954 10 0 59751 900.00000 0 10013937.247 -15856854.796 -17285584.259 10 0 59751 1800.00000 0 11637768.659 -17018464.458 -15019091.117 10 0 59751 2700.00000 0 12936939.388 -18114386.381 -12460847.665 10 0 59751 3600.00000 0 13904385.277 -19084964.709 -9660606.834 10 0 59751 4500.00000 0 14545798.729 -19872361.734 -6672796.331 10 0 59751 5400.00000 0 14879132.803 -20423074.761 -3555458.190 10 0 59751 6300.00000 0 14933599.745 -20690287.559 -369119.728 10 0 59751 7200.00000 0 14748207.679 -20635957.423 2824381.861 10 0 59751 8100.00000 0 14369898.576 -20232550.116 5963098.251 10 0 59751 9000.00000 0 13851367.045 -19464349.739 8986168.797 10 0 59751 9900.00000 0 13248652.669 -18328288.581 11834996.107 10 0 59751 10800.00000 0 12618607.818 -16834262.005 14454375.904 10 0 59751 11700.00000 0 12016347.719 -15004914.964 16793559.761 10 0 59751 12600.00000 0 11492790.011 -12874908.660 18807230.678 10 0 59751 13500.00000 0 11092386.980 -10489697.356 20456373.481 10 0 59751 14400.00000 0 10851145.390 -7903865.357 21709024.023 10 0 59751 15300.00000 0 10795016.714 -5179092.339 22540883.498 10 0 59751 16200.00000 0 10938725.093 -2381830.223 22935786.710 10 0 59751 17100.00000 0 11285082.199 419213.459 22886015.720 10 0 59751 18000.00000 0 11824818.012 3155682.739 22392452.932 10 0 59751 18900.00000 0 12536935.215 5762164.307 21464570.559 10 0 59751 19800.00000 0 13389573.233 8178656.442 20120256.074 10 0 59751 20700.00000 0 14341346.744 10352814.342 18385476.259 10 0 59751 21600.00000 0 15343103.635 12241879.515 16293785.281 10 0 59751 22500.00000 0 16340029.696 13814213.581 13885685.120 10 0 59751 23400.00000 0 17274012.432 15050372.873 11207849.649 10 0 59751 24300.00000 0 18086165.134 15943679.184 8312226.348 10 0 59751 25200.00000 0 18719405.040 16500262.852 5255032.332 10 0 59751 26100.00000 0 19120976.627 16738576.424 2095663.776 10 0 59751 27000.00000 0 19244812.844 16688399.482 -1104460.086 10 0 59751 27900.00000 0 19053633.541 16389376.832 -4283095.698 10 0 59751 28800.00000 0 18520691.098 15889152.133 -7378392.564 10 0 59751 29700.00000 0 17631088.066 15241176.449 -10330104.799 10 0 59751 30600.00000 0 16382609.606 14502285.156 -13080772.298 10 0 59751 31500.00000 0 14786034.180 13730146.562 -15576847.471 10 0 59751 32400.00000 0 12864908.075 12980691.112 -17769744.796 10 0 59751 33300.00000 0 10654792.113 12305630.780 -19616792.069 10 0 59751 34200.00000 0 8202011.378 11750174.235 -21082064.378 10 0 59751 35100.00000 0 5561959.699 11351034.911 -22137084.395 10 0 59751 36000.00000 0 2797029.374 11134816.371 -22761375.493 10 0 59751 36900.00000 0 -25747.624 11116843.205 -22942857.107 10 0 59751 37800.00000 0 -2837248.869 11300486.589 -22678075.139 10 0 59751 38700.00000 0 -5568895.240 11677012.623 -21972263.347 10 0 59751 39600.00000 0 -8155259.851 12225959.364 -20839235.015 10 0 59751 40500.00000 0 -10536544.174 12916026.118 -19301107.497 10 0 59751 41400.00000 0 -12660819.068 13706436.960 -17387865.301 10 0 59751 42300.00000 0 -14485938.302 14548720.477 -15136770.619 10 0 59751 43200.00000 0 -15981046.093 15388830.215 -12591632.997 10 0 59751 44100.00000 0 -17127617.211 16169516.023 -9801952.600 10 0 59751 45000.00000 0 -17919987.744 16832845.945 -6821954.010 10 0 59751 45900.00000 0 -18365356.105 17322772.046 -3709529.607 10 0 59751 46800.00000 0 -18483255.968 17587631.777 -525113.281 10 0 59751 47700.00000 0 -18304524.962 17582479.310 2669493.290 10 0 59751 48600.00000 0 -17869813.964 17271148.494 5812318.860 10 0 59751 49500.00000 0 -17227701.017 16627960.523 8842422.003 10 0 59751 50400.00000 0 -16432490.130 15639004.374 11701068.356 10 0 59751 51300.00000 0 -15541788.277 14302936.076 14332863.207 10 0 59751 52200.00000 0 -14613962.723 12631262.944 16686817.928 10 0 59751 53100.00000 0 -13705585.584 10648100.452 18717330.173 10 0 59751 54000.00000 0 -12868972.629 8389411.162 20385059.699 10 0 59751 54900.00000 0 -12149919.148 5901756.484 21657683.739 10 0 59751 55800.00000 0 -11585727.327 3240612.124 22510518.078 10 0 59751 56700.00000 0 -11203607.241 468315.807 22926992.610 10 0 59751 57600.00000 0 -11019518.096 -2348269.060 22898972.624 10 0 59751 58500.00000 0 -11037498.108 -5140278.397 22426919.811 10 0 59751 59400.00000 0 -11249511.175 -7839458.037 21519889.728 10 0 59751 60300.00000 0 -11635817.180 -10380753.102 20195365.246 10 0 59751 61200.00000 0 -12165851.024 -12704769.891 18478928.415 10 0 59751 62100.00000 0 -12799574.317 -14760009.027 16403776.025 10 0 59751 63000.00000 0 -13489243.767 -16504777.707 14010087.079 10 0 59751 63900.00000 0 -14181522.682 -17908701.657 11344253.288 10 0 59751 64800.00000 0 -14819847.211 -18953773.899 8457986.463 10 0 59751 65700.00000 0 -15346947.816 -19634896.420 5407319.324 10 0 59751 66600.00000 0 -15707419.393 -19959891.877 2251518.736 10 0 59751 67500.00000 0 -15850230.946 -19948984.835 -948067.613 10 0 59751 68400.00000 0 -15731067.745 -19633774.347 -4129208.395 10 0 59751 69300.00000 0 -15314405.708 -19055741.383 -7230005.691 10 0 59751 70200.00000 0 -14575228.782 -18264354.493 -10190107.412 10 0 59751 71100.00000 0 -13500315.147 -17314854.273 -12951890.536 10 0 59751 72000.00000 0 -12089036.316 -16265810.959 -15461591.058 10 0 59751 72900.00000 0 -10353633.928 -15176559.161 -17670357.813 10 0 59751 73800.00000 0 -8318961.184 -14104618.874 -19535209.006 10 0 59751 74700.00000 0 -6021698.741 -13103212.342 -21019872.300 10 0 59751 75600.00000 0 -3509076.994 -12218982.065 -22095492.004 10 0 59751 76500.00000 0 -837157.588 -11490006.417 -22741189.654 10 0 59751 77400.00000 0 1931254.476 -10944196.493 -22944467.324 10 0 59751 78300.00000 0 4728981.409 -10598141.416 -22701446.235 10 0 59751 79200.00000 0 7487027.389 -10456450.176 -22016936.502 10 0 59751 80100.00000 0 10137211.410 -10511616.966 -20904337.103 10 0 59751 81000.00000 0 12614769.038 -10744414.827 -19385368.494 10 0 59751 81900.00000 0 14860815.376 -11124800.083 -17489643.408 10 0 59751 82800.00000 0 16824567.304 -11613288.517 -15254084.564 10 0 59751 83700.00000 0 18465233.381 -12162744.423 -12722200.856 10 0 59751 84600.00000 0 19753493.725 -12720506.281 -9943236.362 10 0 59751 85500.00000 0 20672509.311 -13230758.712 -6971209.017 10 0 59752 0.00000 0 21218420.007 -13637050.030 -3863858.175 10 0 59752 900.00000 0 21400312.241 -13884848.895 -681520.055 10 0 59752 1800.00000 0 21239658.575 -13924031.363 2514042.508 10 0 59752 2700.00000 0 20769255.168 -13711193.886 5660838.746 10 0 59752 3600.00000 0 20031702.249 -13211694.014 8697849.528 10 0 59752 4500.00000 0 19077492.832 -12401332.938 11566206.184 10 0 59752 5400.00000 0 17962790.665 -11267608.821 14210325.746 10 0 59752 6300.00000 0 16746991.116 -9810487.952 16578981.056 10 0 59752 7200.00000 0 15490167.433 -8042660.921 18626285.571 10 0 59752 8100.00000 0 14250509.248 -5989272.366 20312574.643 10 0 59752 9000.00000 0 13081860.132 -3687134.583 21605167.066 10 0 59752 9900.00000 0 12031456.700 -1183456.638 22478992.979 10 0 59752 10800.00000 0 11137963.115 1465859.599 22917076.719 10 0 59752 11700.00000 0 10429882.541 4198287.336 22910865.810 10 0 59752 12600.00000 0 9924411.457 6947022.401 22460399.905 10 0 59752 13500.00000 0 9626784.415 9643514.777 21574316.295 10 0 59752 14400.00000 0 9530136.616 12220080.692 20269691.398 10 0 59752 15300.00000 0 9615890.230 14612488.127 18571720.467 10 0 59752 16200.00000 0 9854648.669 16762409.461 16513240.698 10 0 59752 17100.00000 0 10207561.772 18619639.993 14134105.764 10 0 59752 18000.00000 0 10628105.059 20143990.268 11480422.752 10 0 59752 18900.00000 0 11064198.542 21306773.347 8603665.262 10 0 59752 19800.00000 0 11460575.978 22091824.726 5559679.020 10 0 59752 20700.00000 0 11761304.449 22496011.824 2407598.944 10 0 59752 21600.00000 0 11912347.302 22529211.411 -791301.424 10 0 59752 22500.00000 0 11864061.242 22213755.642 -3974805.508 10 0 59752 23400.00000 0 11573520.740 21583369.960 -7080970.341 10 0 59752 24300.00000 0 11006570.000 20681647.744 -10049339.795 10 0 59752 25200.00000 0 10139514.046 19560126.368 -12822129.840 10 0 59752 26100.00000 0 8960375.845 18276046.375 -15345361.670 10 0 59752 27000.00000 0 7469664.715 16889888.960 -17569919.814 10 0 59752 27900.00000 0 5680622.126 15462796.293 -19452513.940 10 0 59752 28800.00000 0 3618933.238 14053984.112 -20956525.108 10 0 59752 29700.00000 0 1321915.164 12718256.038 -22052719.851 10 0 59752 30600.00000 0 -1162784.921 11503724.499 -22719818.246 10 0 59752 31500.00000 0 -3778927.969 10449834.154 -22944905.135 10 0 59752 32400.00000 0 -6463785.442 9585770.547 -22723676.931 10 0 59752 33300.00000 0 -9150518.632 8929320.234 -22060519.657 10 0 59752 34200.00000 0 -11770735.932 8486229.412 -20968417.182 10 0 59752 35100.00000 0 -14257121.964 8250086.874 -19468691.900 10 0 59752 36000.00000 0 -16546029.438 8202734.957 -17590583.256 10 0 59752 36900.00000 0 -18579926.206 8315189.935 -15370672.677 10 0 59752 37800.00000 0 -20309596.235 8549031.795 -12852166.369 10 0 59752 38700.00000 0 -21696003.494 8858203.650 -10084050.150 10 0 59752 39600.00000 0 -22711741.864 9191143.855 -7120133.058 10 0 59752 40500.00000 0 -23342011.678 9493159.964 -4017998.587 10 0 59752 41400.00000 0 -23585083.263 9708943.546 -837884.166 10 0 59752 42300.00000 0 -23452229.384 9785119.183 2358489.004 10 0 59752 43200.00000 0 -22967130.783 9672719.581 5509112.853 10 0 59752 44100.00000 0 -22164780.941 9329482.071 8552892.764 10 0 59752 45000.00000 0 -21089937.066 8721869.458 11430827.980 10 0 59752 45900.00000 0 -19795183.092 7826729.866 14087149.485 10 0 59752 46800.00000 0 -18338686.372 6632525.478 16470393.738 10 0 59752 47700.00000 0 -16781742.247 5140078.150 18534392.047 10 0 59752 48600.00000 0 -15186209.112 3362800.031 20239157.225 10 0 59752 49500.00000 0 -13611940.784 1326398.592 21551651.279 10 0 59752 50400.00000 0 -12114322.844 -931932.697 22446420.063 10 0 59752 51300.00000 0 -10742014.980 -3364805.773 22906083.403 10 0 59752 52200.00000 0 -9534992.720 -5916359.359 22921671.747 10 0 59752 53100.00000 0 -8522969.507 -8524340.439 22492803.028 10 0 59752 54000.00000 0 -7724264.324 -11122461.182 21627696.220 10 0 59752 54900.00000 0 -7145161.702 -13642935.128 20343020.838 10 0 59752 55800.00000 0 -6779790.697 -16019088.698 18663584.506 10 0 59752 56700.00000 0 -6610527.870 -18187940.725 16621863.603 10 0 59752 57600.00000 0 -6608907.565 -20092643.492 14257384.877 10 0 59752 58500.00000 0 -6737001.513 -21684683.975 11615968.861 10 0 59752 59400.00000 0 -6949209.956 -22925753.509 8748848.708 10 0 59752 60300.00000 0 -7194388.923 -23789207.519 5711680.667 10 0 59752 61200.00000 0 -7418223.780 -24261053.671 2563465.024 10 0 59752 62100.00000 0 -7565748.309 -24340426.479 -634601.683 10 0 59752 63000.00000 0 -7583902.055 -24039527.903 -3820320.612 10 0 59752 63900.00000 0 -7424016.617 -23383036.004 -6931706.834 10 0 59752 64800.00000 0 -7044124.308 -22407006.394 -9908203.335 10 0 59752 65700.00000 0 -6410989.906 -21157312.749 -12691868.234 10 0 59752 66600.00000 0 -5501777.959 -19687692.389 -15228511.021 10 0 59752 67500.00000 0 -4305283.503 -18057479.739 -17468754.853 10 0 59752 68400.00000 0 -2822672.672 -16329123.612 -19369003.522 10 0 59752 69300.00000 0 -1067700.606 -14565593.450 -20892293.758 10 0 59752 70200.00000 0 933603.778 -12827784.019 -22009016.113 10 0 59752 71100.00000 0 3143773.963 -11172027.886 -22697490.449 10 0 59752 72000.00000 0 5515228.686 -9647820.161 -22944385.042 10 0 59752 72900.00000 0 7992026.748 -8295850.666 -22744971.581 10 0 59752 73800.00000 0 10511980.986 -7146425.393 -22103211.536 10 0 59752 74700.00000 0 13009043.412 -6218342.566 -21031672.701 10 0 59752 75600.00000 0 15415862.405 -5518269.198 -19551277.978 10 0 59752 76500.00000 0 17666405.599 -5040642.864 -17690891.659 10 0 59752 77400.00000 0 19698539.360 -4768101.308 -15486751.607 10 0 59752 78300.00000 0 21456457.706 -4672420.188 -12981758.666 10 0 59752 79200.00000 0 22892859.835 -4715917.969 -10224637.338 10 0 59752 80100.00000 0 23970785.904 -4853267.333 -7268984.384 10 0 59752 81000.00000 0 24665035.191 -5033635.478 -4172224.095 10 0 59752 81900.00000 0 24963108.243 -5203061.895 -994490.769 10 0 59752 82800.00000 0 24865634.572 -5306972.430 2202539.540 10 0 59752 83700.00000 0 24386269.097 -5292722.838 5356845.121 10 0 59752 84600.00000 0 23551062.700 -5112063.985 8407259.281 10 0 59752 85500.00000 0 22397334.214 -4723424.403 11294652.219 10 0 59753 0.00000 0 20972091.995 -4093913.798 13963071.233 10 0 59753 900.00000 0 19330070.836 -3200962.511 16360818.995 10 0 59753 1800.00000 0 17531468.545 -2033528.608 18441446.015 10 0 59753 2700.00000 0 15639474.110 -592820.301 20164643.699 10 0 59753 3600.00000 0 13717692.100 1107496.524 21497017.930 10 0 59753 4500.00000 0 11827569.372 3041615.622 22412730.503 10 0 59753 5400.00000 0 10025930.600 5172420.546 22893996.549 10 0 59753 6300.00000 0 8362724.282 7452794.600 22931428.859 10 0 59753 7200.00000 0 6879072.215 9827357.700 22524222.678 10 0 59753 8100.00000 0 5605702.754 12234559.702 21680177.319 10 0 59753 9000.00000 0 4561832.426 14609044.918 20415553.709 10 0 59753 9900.00000 0 3754542.070 16884191.002 18754769.837 10 0 59753 10800.00000 0 3178673.233 18994717.927 16729938.992 10 0 59753 11700.00000 0 2817249.006 20879259.336 14380258.496 10 0 59753 12600.00000 0 2642401.676 22482789.558 11751259.650 10 0 59753 13500.00000 0 2616768.257 23758805.056 8893932.339 10 0 59753 14400.00000 0 2695295.118 24671168.843 5863740.424 10 0 59753 15300.00000 0 2827375.481 25195539.997 2719546.596 10 0 59753 16200.00000 0 2959229.088 25320327.588 -477532.558 10 0 59753 17100.00000 0 3036422.757 25047128.167 -3665318.802 10 0 59753 18000.00000 0 3006424.202 24390627.677 -6781787.964 10 0 59753 18900.00000 0 2821079.744 23377971.363 -9766284.632 10 0 59753 19800.00000 0 2438909.594 22047627.894 -12560711.283 10 0 59753 20700.00000 0 1827122.001 20447795.431 -15110667.587 10 0 59753 21600.00000 0 963259.479 18634416.909 -17366516.879 10 0 59753 22500.00000 0 -163593.984 16668888.312 -19284358.299 10 0 59753 23400.00000 0 -1552097.102 14615556.721 -20826885.172 10 0 59753 24300.00000 0 -3188458.256 12539113.581 -21964112.702 10 0 59753 25200.00000 0 -5046774.499 10501992.784 -22673960.887 10 0 59753 26100.00000 0 -7089889.174 8561882.746 -22942681.496 10 0 59753 27000.00000 0 -9270732.895 6769456.415 -22765121.225 10 0 59753 27900.00000 0 -11534092.299 5166413.665 -22144816.368 10 0 59753 28800.00000 0 -13818732.913 3783917.158 -21093917.635 10 0 59753 29700.00000 0 -16059787.710 2641485.920 -19632947.039 10 0 59753 30600.00000 0 -18191311.863 1746391.454 -17790391.953 10 0 59753 31500.00000 0 -20148897.119 1093580.084 -15602144.602 10 0 59753 32400.00000 0 -21872236.877 666122.967 -13110798.162 10 0 59753 33300.00000 0 -23307535.079 436173.031 -10364813.372 10 0 59753 34200.00000 0 -24409658.570 366386.910 -7417572.208 10 0 59753 35100.00000 0 -25143943.395 411750.350 -4326337.236 10 0 59753 36000.00000 0 -25487580.071 521728.744 -1151137.128 10 0 59753 36900.00000 0 -25430520.489 642650.937 2046399.648 10 0 59753 37800.00000 0 -24975869.299 720224.773 5204240.145 10 0 59753 38700.00000 0 -24139744.139 702077.538 8261147.949 10 0 59753 39600.00000 0 -22950611.337 540213.693 11157866.508 10 0 59753 40500.00000 0 -21448125.502 193285.920 13838262.106 10 0 59753 41400.00000 0 -19681521.954 -371416.378 16250404.745 10 0 59753 42300.00000 0 -17707629.389 -1176345.014 18347566.551 10 0 59753 43200.00000 0 -15588585.588 -2232505.851 20089119.179 10 0 59753 44100.00000 0 -13389350.995 -3538756.880 21441313.754 10 0 59753 45000.00000 0 -11175123.104 -5081621.638 22377929.047 10 0 59753 45900.00000 0 -9008758.323 -6835626.851 22880776.177 10 0 59753 46800.00000 0 -6948307.473 -8764151.550 22940050.598 10 0 59753 47700.00000 0 -5044766.346 -10820753.754 22554524.851 10 0 59753 48600.00000 0 -3340133.791 -12950921.171 21731578.238 10 0 59753 49500.00000 0 -1865857.122 -15094174.754 20487062.439 10 0 59753 50400.00000 0 -641728.919 -17186439.086 18845004.848 10 0 59753 51300.00000 0 324719.381 -19162582.230 16837154.402 10 0 59753 52200.00000 0 1038302.148 -20959020.274 14502377.437 10 0 59753 53100.00000 0 1515739.100 -22516278.383 11885914.181 10 0 59753 54000.00000 0 1784708.352 -23781401.608 9038509.150 10 0 59753 54900.00000 0 1882432.897 -24710114.293 6015431.484 10 0 59753 55800.00000 0 1853860.252 -25268636.940 2875403.767 10 0 59753 56700.00000 0 1749512.469 -25435083.459 -320540.028 10 0 59753 57600.00000 0 1623097.976 -25200379.054 -3510245.045 10 0 59753 58500.00000 0 1528987.108 -24568659.145 -6631650.715 10 0 59753 59400.00000 0 1519659.329 -23557131.618 -9624006.124 10 0 59753 60300.00000 0 1643231.529 -22195407.521 -12429061.006 10 0 59753 61200.00000 0 1941173.486 -20524327.897 -14992208.060 10 0 59753 62100.00000 0 2446308.649 -18594335.957 -17263553.515 10 0 59753 63000.00000 0 3181186.247 -16463462.996 -19198894.366 10 0 59753 63900.00000 0 4156894.807 -14195012.867 -20760582.711 10 0 59753 64800.00000 0 5372368.357 -11855042.396 -21918260.187 10 0 59753 65700.00000 0 6814215.554 -9509743.463 -22649448.242 10 0 59753 66600.00000 0 8457079.758 -7222836.452 -22939982.949 10 0 59753 67500.00000 0 10264515.560 -5053083.891 -22784286.316 10 0 59753 68400.00000 0 12190345.513 -3052027.709 -22185469.277 10 0 59753 69300.00000 0 14180440.511 -1262043.915 -21155264.807 10 0 59753 70200.00000 0 16174849.484 285205.122 -19713792.946 10 0 59753 71100.00000 0 18110189.474 1569857.576 -17889162.652 10 0 59753 72000.00000 0 19922196.109 2584434.342 -15716918.612 10 0 59753 72900.00000 0 21548327.870 3333894.010 -13239344.028 10 0 59753 73800.00000 0 22930315.288 3835160.272 -10504633.193 10 0 59753 74700.00000 0 24016548.463 4116143.487 -7565950.261 10 0 59753 75600.00000 0 24764203.183 4214299.446 -4480392.755 10 0 59753 76500.00000 0 25141016.904 4174787.673 -1307880.218 10 0 59753 77400.00000 0 25126640.577 4048308.295 1890010.056 10 0 59753 78300.00000 0 24713510.187 3888709.899 5051237.415 10 0 59753 79200.00000 0 23907201.982 3750470.172 8114499.079 10 0 59753 80100.00000 0 22726257.063 3686156.184 11020414.832 10 0 59753 81000.00000 0 21201483.065 3743971.809 13712672.453 10 0 59753 81900.00000 0 19374762.412 3965495.844 16139112.101 10 0 59753 82800.00000 0 17297416.996 4383706.131 18252729.201 10 0 59753 83700.00000 0 15028197.300 5021372.914 20012577.191 10 0 59753 84600.00000 0 12630979.258 5889889.162 21384553.568 10 0 59753 85500.00000 0 10172264.019 6988587.307 22342054.817 10 0 59754 0.00000 0 7718583.775 8304571.633 22866488.351 10 0 59754 900.00000 0 5333918.977 9813075.085 22947632.318 10 0 59754 1800.00000 0 3077236.312 11478325.022 22583835.991 10 0 59754 2700.00000 0 1000244.057 13254885.679 21782057.743 10 0 59754 3600.00000 0 -854539.749 15089421.207 20557738.641 10 0 59754 4500.00000 0 -2455328.203 16922807.971 18934513.712 10 0 59754 5400.00000 0 -3782151.902 18692509.310 16943765.394 10 0 59754 6300.00000 0 -4827446.022 20335114.790 14624026.588 10 0 59754 7200.00000 0 -5596113.855 21788938.489 12020243.740 10 0 59754 8100.00000 0 -6105064.428 22996567.994 9182913.117 10 0 59754 9000.00000 0 -6382243.785 23907257.140 6167106.138 10 0 59754 9900.00000 0 -6465200.877 24479061.497 3031402.218 10 0 59754 10800.00000 0 -6399248.860 24680626.071 -163250.343 10 0 59754 11700.00000 0 -6235299.974 24492548.845 -3354723.071 10 0 59754 12600.00000 0 -6027466.253 23908261.596 -6480921.882 10 0 59754 13500.00000 0 -5830528.572 22934389.692 -9481003.051 10 0 59754 14400.00000 0 -5697382.363 21590574.676 -12296566.011 10 0 59754 15300.00000 0 -5676569.409 19908766.271 -14872798.631 10 0 59754 16200.00000 0 -5810001.554 17932013.035 -17159551.852 10 0 59754 17100.00000 0 -6130973.960 15712802.111 -19112322.001 10 0 59754 18000.00000 0 -6662553.087 13311017.724 -20693121.107 10 0 59754 18900.00000 0 -7416408.542 10791603.998 -21871218.083 10 0 59754 19800.00000 0 -8392138.988 8222029.985 -22623736.357 10 0 59754 20700.00000 0 -9577121.156 5669663.013 -22936096.511 10 0 59754 21600.00000 0 -10946888.871 3199159.894 -22802295.739 10 0 59754 22500.00000 0 -12466026.510 869984.498 -22225019.107 10 0 59754 23400.00000 0 -14089539.564 -1265845.276 -21215580.961 10 0 59754 24300.00000 0 -15764644.917 -3165688.147 -19793698.070 10 0 59754 25200.00000 0 -17432905.810 -4797808.406 -17987099.300 10 0 59754 26100.00000 0 -19032621.895 -6142440.807 -15830979.777 10 0 59754 27000.00000 0 -20501374.156 -7192348.666 -13367310.447 10 0 59754 27900.00000 0 -21778617.961 -7952853.753 -10644016.679 10 0 59754 28800.00000 0 -22808215.423 -8441338.653 -7714042.205 10 0 59754 29700.00000 0 -23540800.925 -8686244.511 -4634316.854 10 0 59754 30600.00000 0 -23935880.656 -8725608.125 -1464648.371 10 0 59754 31500.00000 0 -23963578.219 -8605201.607 1733439.782 10 0 59754 32400.00000 0 -23605953.344 -8376354.399 4897901.876 10 0 59754 33300.00000 0 -22857838.665 -8093550.557 7967371.360 10 0 59754 34200.00000 0 -21727159.770 -7811903.355 10882346.875 10 0 59754 35100.00000 0 -20234725.348 -7584614.182 13586340.111 10 0 59754 36000.00000 0 -18413496.266 -7460523.025 16026963.645 10 0 59754 36900.00000 0 -16307364.073 -7481853.715 18156938.232 10 0 59754 37800.00000 0 -13969489.552 -7682248.740 19935000.835 10 0 59754 38700.00000 0 -11460269.930 -8085176.199 21326696.730 10 0 59754 39600.00000 0 -8845018.538 -8702775.833 22305041.146 10 0 59754 40500.00000 0 -6191452.255 -9535192.848 22851038.494 10 0 59754 41400.00000 0 -3567089.786 -10570428.050 22954049.696 10 0 59754 42300.00000 0 -1036667.477 -11784711.435 22612000.811 10 0 59754 43200.00000 0 1340321.505 -13143384.809 21831428.870 10 0 59754 44100.00000 0 3511863.739 -14602257.931 20627363.626 10 0 59754 45000.00000 0 5435346.013 -16109382.925 19023046.750 10 0 59754 45900.00000 0 7079080.710 -17607174.181 17049492.912 10 0 59754 46800.00000 0 8423373.249 -19034786.297 14744900.015 10 0 59754 47700.00000 0 9461087.417 -20330651.341 12153918.874 10 0 59754 48600.00000 0 10197685.240 -21435069.578 9326795.364 10 0 59754 49500.00000 0 10650739.936 -22292744.974 6318400.773 10 0 59754 50400.00000 0 10848942.549 -22855158.483 3187168.705 10 0 59754 51300.00000 0 10830644.377 -23082678.484 -6041.028 10 0 59754 52200.00000 0 10641997.083 -22946318.353 -3199129.256 10 0 59754 53100.00000 0 10334769.645 -22429065.797 -6329971.340 10 0 59754 54000.00000 0 9963935.294 -21526726.537 -9337633.693 10 0 59754 54900.00000 0 9585131.542 -20248245.445 -12163568.325 10 0 59754 55800.00000 0 9252101.947 -18615490.434 -14752761.037 10 0 59754 56700.00000 0 9014229.109 -16662507.266 -17054810.071 10 0 59754 57600.00000 0 8914264.426 -14434275.870 -19024913.434 10 0 59754 58500.00000 0 8986351.690 -11985019.985 -20624745.124 10 0 59754 59400.00000 0 9254428.930 -9376140.722 -21823202.989 10 0 59754 60300.00000 0 9731076.690 -6673860.343 -22597013.663 10 0 59754 61200.00000 0 10416861.796 -3946674.760 -22931183.013 10 0 59754 62100.00000 0 11300204.584 -1262720.869 -22819283.714 10 0 59754 63000.00000 0 12357775.334 1312831.783 -22263574.813 10 0 59754 63900.00000 0 13555403.216 3720256.696 -21274951.439 10 0 59754 64800.00000 0 14849459.454 5907511.148 -19872726.102 10 0 59754 65700.00000 0 16188656.440 7832149.593 -18084246.198 10 0 59754 66600.00000 0 17516186.979 9462831.187 -15944355.553 10 0 59754 67500.00000 0 18772113.586 10780360.138 -13494710.751 10 0 59754 68400.00000 0 19895907.272 11778217.167 -10782965.778 10 0 59754 69300.00000 0 20829028.909 12462561.708 -7861841.175 10 0 59754 70200.00000 0 21517444.604 12851706.751 -4788096.025 10 0 59754 71100.00000 0 21913969.271 12975090.302 -1621423.031 10 0 59754 72000.00000 0 21980339.913 12871788.424 1576711.523 10 0 59754 72900.00000 0 21688931.560 12588634.035 4744260.175 10 0 59754 73800.00000 0 21024043.863 12178021.948 7819795.828 10 0 59754 74700.00000 0 19982704.463 11695493.539 10743699.008 10 0 59754 75600.00000 0 18574955.482 11197203.430 13459308.071 10 0 59754 76500.00000 0 16823611.021 10737375.184 15914010.451 10 0 59754 77400.00000 0 14763495.614 10365853.097 18060254.337 10 0 59754 78300.00000 0 12440194.947 10125852.949 19856461.987 10 0 59754 79200.00000 0 9908370.175 10052005.966 21267827.870 10 0 59754 80100.00000 0 7229705.105 10168777.907 22266987.018 10 0 59754 81000.00000 0 4470570.354 10489329.528 22834541.492 10 0 59754 81900.00000 0 1699500.063 11014866.314 22959435.354 10 0 59754 82800.00000 0 -1015415.511 11734505.170 22639171.218 10 0 59754 83700.00000 0 -3609114.918 12625664.381 21879864.137 10 0 59754 84600.00000 0 -6022022.116 13654961.533 20696131.434 10 0 59754 85500.00000 0 -8202273.932 14779582.967 19110819.834 99